Weather History for Carbondale, IL

Change the Weather History Date:

Thursday, September 19, 2013

  Actual Average Record
Temperature  
Mean Temperature 80 °F -  
Max Temperature 88 °F 79 °F 99 °F (1940)
Min Temperature 71 °F 55 °F 35 °F (1916)
Cooling Degree Days 14    
Growing Degree Days 30 (Base 50)    
Moisture  
Dew Point 70 °F    
Average Humidity 77    
Maximum Humidity 91    
Minimum Humidity 59    
Precipitation  
Precipitation 0.00 in - - ()
Sea Level Pressure  
Sea Level Pressure 29.99 in    
Wind  
Wind Speed 9 mph (South)    
Max Wind Speed 16 mph    
Max Gust Speed 20 mph    
Visibility 8 miles    
Events      
Averages and records for this station are not official NWS values.
T = Trace of Precipitation, MM = Missing Value Source: NWS Daily Summary

Daily Weather History Graph

Daily Weather History Graph

Search for Another Location

Airport:

Trip Planner

Search our weather history database for the weather conditions in past years. The results will help you decide how hot, cold, wet, or windy it might be!

Date:

Astronomy

Sep. 19, 2013 Rise Set
Actual Time 6:42 AM CDT 6:58 PM CDT
Civil Twilight 6:16 AM CDT 7:24 PM CDT
Nautical Twilight 5:45 AM CDT 7:55 PM CDT
Astronomical Twilight 5:14 AM CDT 8:26 PM CDT
Moon 6:57 PM CDT (9/19) 6:50 AM CDT (9/19)
Length of Visible Light 13h 08m
Length of Day
12h 15m
Full, 100% of the Moon is Illuminated
Sep 19
Full
Sep 26
Last Quarter
Oct 4
New
Oct 11
First Quarter
Oct 18
Full

Hourly Weather History & Observations

Time (CDT) Temp. Heat Index Dew Point Humidity Pressure Visibility Wind Dir Wind Speed Gust Speed Precip Events Conditions
12:52 AM 73.0 °F - 70.0 °F 90% 30.02 in 7.0 mi South 8.1 mph - N/A   Clear
1:52 AM 72.0 °F - 69.1 °F 91% 30.03 in 7.0 mi South 8.1 mph - N/A   Clear
2:52 AM 72.0 °F - 69.1 °F 91% 30.02 in 7.0 mi South 4.6 mph - N/A   Clear
3:52 AM 72.0 °F - 68.0 °F 87% 30.02 in 7.0 mi Calm Calm - N/A   Clear
4:52 AM 72.0 °F - 68.0 °F 87% 30.02 in 8.0 mi SSW 6.9 mph - N/A   Clear
5:52 AM 71.1 °F - 68.0 °F 90% 30.03 in 8.0 mi South 6.9 mph - N/A   Clear
6:52 AM 71.1 °F - 68.0 °F 90% 30.04 in 6.0 mi South 8.1 mph - N/A   Clear
7:52 AM 73.0 °F - 69.1 °F 87% 30.04 in 7.0 mi South 6.9 mph - N/A   Overcast
8:52 AM 75.9 °F - 70.0 °F 82% 30.04 in 8.0 mi South 9.2 mph - N/A   Mostly Cloudy
9:52 AM 79.0 °F - 70.0 °F 74% 30.05 in 9.0 mi SSW 12.7 mph 17.3 mph N/A   Mostly Cloudy
10:52 AM 78.1 °F - 70.0 °F 76% 30.05 in 9.0 mi SSW 11.5 mph - N/A   Mostly Cloudy
11:52 AM 81.0 °F 84.9 °F 71.1 °F 72% 30.04 in 10.0 mi SSW 11.5 mph 19.6 mph N/A   Mostly Cloudy
12:52 PM 84.0 °F 89.0 °F 71.1 °F 65% 30.02 in 10.0 mi SW 12.7 mph - N/A   Scattered Clouds
1:52 PM 86.0 °F 92.2 °F 72.0 °F 63% 30.00 in 10.0 mi SSW 9.2 mph - N/A   Scattered Clouds
2:52 PM 87.1 °F 92.8 °F 71.1 °F 59% 29.97 in 10.0 mi SSW 12.7 mph - N/A   Scattered Clouds
3:52 PM 88.0 °F 94.7 °F 72.0 °F 59% 29.96 in 10.0 mi SSW 16.1 mph - N/A   Scattered Clouds
4:52 PM 87.1 °F 93.6 °F 72.0 °F 61% 29.94 in 10.0 mi South 12.7 mph - N/A   Clear
5:52 PM 84.0 °F 89.0 °F 71.1 °F 65% 29.92 in 10.0 mi South 11.5 mph - N/A   Clear
6:52 PM 82.0 °F 86.3 °F 71.1 °F 69% 29.92 in 7.0 mi South 12.7 mph - N/A   Clear
7:52 PM 79.0 °F - 71.1 °F 77% 29.93 in 8.0 mi South 10.4 mph - N/A   Clear
8:52 PM 78.1 °F - 70.0 °F 76% 29.95 in 9.0 mi South 8.1 mph - N/A   Clear
9:52 PM 75.9 °F - 70.0 °F 82% 29.96 in 9.0 mi South 5.8 mph - N/A   Clear
10:52 PM 75.9 °F - 70.0 °F 82% 29.96 in 9.0 mi South 9.2 mph - N/A   Clear
11:52 PM 75.9 °F - 69.1 °F 79% 29.95 in 10.0 mi South 10.4 mph - N/A   Clear